Location: Falniów
(50.3639°N, 19.9642°E)
Time: 22:43:56
(UTC+00:00)

Cosmos 962 Rocket - Visible Passes

Search period start: 18 April 2026 00:00
Search period end: 28 April 2026 00:00
Orbit: 949 x 999 km, 82.9° (Epoch: 18 April)

Date Brightness Start Highest point End Pass type
(mag) Time Alt. Az. Time Alt. Az. Time Alt. Az.
18 Apr 6.5 19:46:52 10° SW 19:52:08 28° WNW 19:57:24 10° N visible
19 Apr 4.6 18:25:02 10° S 18:31:15 86° W 18:37:27 10° N visible
19 Apr 7.1 20:13:28 10° W 20:17:35 18° WNW 20:21:42 10° NNW visible
20 Apr 5.4 18:50:16 10° SSW 18:56:18 53° WNW 19:02:19 10° N visible
20 Apr 7.5 20:41:31 10° WNW 20:43:14 11° NW 20:44:59 10° NW visible
21 Apr 6.3 19:16:01 10° SW 19:21:31 33° WNW 19:27:00 10° N visible
22 Apr 8.0 02:37:34 10° NE 02:39:08 11° NE 02:40:41 10° ENE visible
22 Apr 7.1 19:42:23 10° WSW 19:46:54 21° WNW 19:51:26 10° NNW visible
23 Apr 5.2 18:19:38 10° SSW 18:25:45 61° WNW 18:31:51 10° N visible
23 Apr 7.5 20:09:46 10° W 20:12:30 13° NW 20:15:14 10° NNW visible
24 Apr 6.1 18:45:13 10° SW 18:50:55 38° WNW 18:56:36 10° N visible
25 Apr 7.0 19:11:23 10° WSW 19:16:15 24° WNW 19:21:07 10° N visible
26 Apr 7.7 02:30:35 10° NNE 02:34:05 15° ENE 02:37:36 10° E visible
26 Apr 7.5 19:38:22 10° W 19:41:47 15° NW 19:45:11 10° NNW visible
